TimeWET,TemperatureF,Dew PointF,Humidity,Sea Level PressureIn,VisibilityMPH,Wind Direction,Wind SpeedMPH,Gust SpeedMPH,PrecipitationIn,Events,Conditions,WindDirDegrees,DateUTC
12:00 AM,57,55,90,29.94,3,Calm,Calm,,,,Partly Cloudy,,2012-10-04 00:00:00
12:00 AM,57.2,55.4,94,29.92,3.1,Calm,Calm,-,N/A,,Scattered Clouds,0,2012-10-04 00:00:00
12:30 AM,57.2,55.4,94,29.92,3.1,Calm,Calm,-,N/A,,Scattered Clouds,0,2012-10-04 00:30:00
1:00 AM,57.2,55.4,94,29.92,3.1,Calm,Calm,-,N/A,,Scattered Clouds,0,2012-10-04 01:00:00
1:30 AM,55.4,55.4,100,29.92,3.1,Calm,Calm,-,N/A,,Scattered Clouds,0,2012-10-04 01:30:00
2:00 AM,60.8,59.0,94,29.92,3.1,Calm,Calm,-,N/A,,Scattered Clouds,0,2012-10-04 02:00:00
2:30 AM,60.8,59.0,94,29.89,3.1,Calm,Calm,-,N/A,,Scattered Clouds,0,2012-10-04 02:30:00
3:00 AM,57,55,92,29.90,3,Calm,Calm,,,,Partly Cloudy,,2012-10-04 03:00:00
3:00 AM,57.2,55.4,94,29.89,3.1,Calm,Calm,-,N/A,,Scattered Clouds,0,2012-10-04 03:00:00
3:30 AM,59.0,57.2,94,29.89,3.1,Calm,Calm,-,N/A,,Scattered Clouds,0,2012-10-04 03:30:00
4:00 AM,62.6,60.8,94,29.89,3.1,Calm,Calm,-,N/A,,Scattered Clouds,0,2012-10-04 04:00:00
4:30 AM,60.8,59.0,94,29.89,3.1,Calm,Calm,-,N/A,,Scattered Clouds,0,2012-10-04 04:30:00
4:53 AM,62.6,60.8,94,29.89,0.2,SSW,2.3,-,N/A,Fog,Fog,200,2012-10-04 04:53:00
5:00 AM,62.6,60.8,94,29.89,0.2,SSW,5.8,-,N/A,Fog,Fog,200,2012-10-04 05:00:00
5:30 AM,66.2,64.4,94,29.89,0.1,SSW,5.8,-,N/A,Fog,Fog,200,2012-10-04 05:30:00
6:00 AM,66,65,94,29.91,0,Calm,Calm,,,Fog,Partial Fog,,2012-10-04 06:00:00
6:00 AM,66.2,64.4,94,29.92,0.1,Calm,Calm,-,N/A,Fog,Fog,0,2012-10-04 06:00:00
6:52 AM,68.0,66.2,94,29.92,0.5,SSW,4.6,-,N/A,Fog,Fog,200,2012-10-04 06:52:00
7:00 AM,66.2,66.2,100,29.92,0.1,SSW,4.6,-,N/A,Fog,Fog,210,2012-10-04 07:00:00
7:30 AM,68.0,66.2,94,29.92,0.7,SSW,6.9,-,N/A,,Overcast,200,2012-10-04 07:30:00
7:46 AM,68.0,66.2,94,29.92,1.9,SSW,8.1,-,N/A,,Scattered Clouds,210,2012-10-04 07:46:00
8:00 AM,68.0,66.2,94,29.92,1.9,SSW,6.9,-,N/A,,Scattered Clouds,200,2012-10-04 08:00:00
8:30 AM,68.0,66.2,94,29.95,1.9,SSW,8.1,-,N/A,,Scattered Clouds,200,2012-10-04 08:30:00
8:58 AM,69.8,68.0,94,29.95,3.1,SW,9.2,-,N/A,,Scattered Clouds,230,2012-10-04 08:58:00
9:00 AM,71,68,87,29.94,3,SW,9.2,,,,Mostly Cloudy,230,2012-10-04 09:00:00
9:00 AM,69.8,68.0,94,29.95,3.1,SW,9.2,-,N/A,,Scattered Clouds,230,2012-10-04 09:00:00
9:30 AM,73.4,66.2,78,29.95,3.1,SW,9.2,-,N/A,,Scattered Clouds,230,2012-10-04 09:30:00
10:00 AM,75.2,64.4,69,29.95,3.1,SW,10.4,-,N/A,,Scattered Clouds,220,2012-10-04 10:00:00
10:30 AM,77.0,64.4,65,29.95,3.1,SW,10.4,-,N/A,,Scattered Clouds,220,2012-10-04 10:30:00
11:00 AM,78.8,64.4,61,29.95,3.1,WSW,8.1,-,N/A,,Scattered Clouds,240,2012-10-04 11:00:00
11:30 AM,77.0,64.4,65,29.95,3.1,West,11.5,-,N/A,,Scattered Clouds,260,2012-10-04 11:30:00
12:00 PM,78,63,51,29.93,3,West,10.4,,,,Partly Cloudy,270,2012-10-04 12:00:00
12:00 PM,77.0,62.6,61,29.92,3.1,West,10.4,-,N/A,,Scattered Clouds,270,2012-10-04 12:00:00
12:30 PM,77.0,64.4,65,29.92,3.1,West,9.2,-,N/A,,Scattered Clouds,280,2012-10-04 12:30:00
1:00 PM,77.0,64.4,65,29.92,3.1,West,10.4,-,N/A,,Scattered Clouds,280,2012-10-04 13:00:00
1:30 PM,75.2,66.2,73,29.89,3.1,West,8.1,-,N/A,,Scattered Clouds,280,2012-10-04 13:30:00
2:00 PM,75.2,66.2,73,29.89,3.1,WNW,9.2,-,N/A,,Scattered Clouds,300,2012-10-04 14:00:00
2:30 PM,77.0,64.4,65,29.89,3.1,NW,9.2,-,N/A,,Scattered Clouds,310,2012-10-04 14:30:00
3:00 PM,77,65,58,29.89,3,West,10.4,,,,Partly Cloudy,280,2012-10-04 15:00:00
3:00 PM,77.0,64.4,65,29.89,3.1,West,10.4,-,N/A,,Scattered Clouds,280,2012-10-04 15:00:00
3:30 PM,77.0,66.2,69,29.89,3.1,West,10.4,-,N/A,,Scattered Clouds,270,2012-10-04 15:30:00
4:00 PM,77.0,66.2,69,29.89,3.7,West,11.5,-,N/A,,Mostly Cloudy,270,2012-10-04 16:00:00
4:30 PM,75.2,66.2,73,29.89,3.7,West,10.4,-,N/A,,Mostly Cloudy,280,2012-10-04 16:30:00
5:00 PM,73.4,66.2,78,29.92,3.7,West,9.2,-,N/A,,Mostly Cloudy,260,2012-10-04 17:00:00
5:30 PM,73.4,66.2,78,29.92,3.7,West,10.4,-,N/A,,Mostly Cloudy,260,2012-10-04 17:30:00
6:00 PM,72,66,77,29.92,4,WSW,6.9,,,,Scattered Clouds,250,2012-10-04 18:00:00
6:00 PM,73.4,66.2,78,29.92,3.7,WSW,6.9,-,N/A,,Mostly Cloudy,250,2012-10-04 18:00:00
6:30 PM,71.6,66.2,83,29.92,3.7,WSW,8.1,-,N/A,,Mostly Cloudy,250,2012-10-04 18:30:00
7:00 PM,71.6,66.2,83,29.92,3.1,WSW,9.2,-,N/A,,Mostly Cloudy,240,2012-10-04 19:00:00
7:30 PM,71.6,66.2,83,29.92,3.1,WSW,9.2,-,N/A,,Mostly Cloudy,240,2012-10-04 19:30:00
8:00 PM,71.6,66.2,83,29.95,3.1,SW,8.1,-,N/A,,Mostly Cloudy,230,2012-10-04 20:00:00
9:00 PM,70,66,83,29.97,3,SW,8.1,,,,Mostly Cloudy,220,2012-10-04 21:00:00
9:00 PM,69.8,66.2,88,29.98,3.1,SW,8.1,-,N/A,,Scattered Clouds,220,2012-10-04 21:00:00
9:30 PM,69.8,64.4,83,29.98,3.1,SW,9.2,-,N/A,,Scattered Clouds,230,2012-10-04 21:30:00
10:00 PM,69.8,64.4,83,29.98,3.1,SW,6.9,-,N/A,,Scattered Clouds,220,2012-10-04 22:00:00
10:30 PM,68.0,64.4,88,29.98,3.1,SW,4.6,-,N/A,,Scattered Clouds,220,2012-10-04 22:30:00
11:00 PM,68.0,62.6,83,29.98,3.1,Calm,Calm,-,N/A,,Scattered Clouds,0,2012-10-04 23:00:00
11:30 PM,66.2,62.6,88,29.98,3.1,South,5.8,-,N/A,,Scattered Clouds,190,2012-10-04 23:30:00